Ephrata, WA

8:43 PM PDT on March 23, 2017 (GMT -0700)
Ephrata Municipal

Weather History for KEPH - October, 2011

Change the Weather History Date:

Monday, October 3, 2011

  Actual Average Record
Temperature  
Mean Temperature 60 °F 57 °F  
Max Temperature 68 °F 70 °F 85 °F (1987)
Min Temperature 52 °F 43 °F 32 °F (1981)
Degree Days  
Heating Degree Days 5 9  
Month to date heating degree days 15 25  
Since 1 July heating degree days 70 152  
Cooling Degree Days 0 0  
Month to date cooling degree days 0 0  
Year to date cooling degree days 621 769  
Growing Degree Days 10 (Base 50)    
Moisture  
Dew Point 44 °F    
Average Humidity 57    
Maximum Humidity 72    
Minimum Humidity 42    
Precipitation  
Precipitation T in 0.01 in 0.30 in (2008)
Month to date precipitation T 0.04  
Year to date precipitation 4.15 5.06  
Sea Level Pressure  
Sea Level Pressure 29.78 in    
Wind  
Wind Speed 6 mph (SSW)    
Max Wind Speed 15 mph    
Max Gust Speed 20 mph    
T = Trace of Precipitation, MM = Missing Value Source: NWS Daily Summary

Daily Weather History Graph

Daily Weather History Graph

Search for Another Location

Airport or City:

Trip Planner

Search our weather history database for the weather conditions in past years. The results will help you decide how hot, cold, wet, or windy it might be!

Date:

Astronomy

Oct. 03, 2011 Rise Set
Actual Time 6:59 AM PDT 6:33 PM PDT
Civil Twilight 6:28 AM PDT 7:04 PM PDT
Nautical Twilight 5:53 AM PDT 7:39 PM PDT
Astronomical Twilight 5:17 AM PDT 8:15 PM PDT
Moon 2:22 PM PDT (10/3) 11:21 PM PDT (10/3)
Length of Visible Light 12h 35m
Length of Day
11h 34m
Waxing Crescent, 46% of the Moon is Illuminated
Oct 3
Waxing Crescent
Oct 3
First Quarter
Oct 11
Full
Oct 19
Last Quarter
Oct 26
New

Hourly Weather History & Observations

Time (PDT) Temp. Dew Point Humidity Pressure Visibility Wind Dir Wind Speed Gust Speed Precip Events Conditions
12:53 AM 59.0 °F 43.0 °F 55% 29.79 in - North 5.8 mph - N/A   Mostly Cloudy
1:53 AM 61.0 °F 43.0 °F 52% 29.77 in - NW 9.2 mph - N/A   Partly Cloudy
2:53 AM 57.9 °F 43.0 °F 58% 29.75 in - NNW 5.8 mph - N/A   Partly Cloudy
3:53 AM 60.1 °F 43.0 °F 53% 29.75 in - NW 6.9 mph - N/A   Scattered Clouds
4:53 AM 57.0 °F 44.1 °F 62% 29.76 in - SW 3.5 mph - N/A   Partly Cloudy
5:53 AM 55.9 °F 44.1 °F 64% 29.77 in - SSE 3.5 mph - N/A   Mostly Cloudy
6:53 AM 55.0 °F 46.0 °F 72% 29.79 in - SW 6.9 mph - N/A   Overcast
7:53 AM 57.0 °F 46.0 °F 67% 29.78 in - Calm Calm - N/A   Clear
8:53 AM 57.9 °F 48.0 °F 70% 29.80 in - SSE 4.6 mph - N/A   Clear
9:53 AM 62.1 °F 48.0 °F 60% 29.81 in - SSE 6.9 mph - N/A   Clear
10:53 AM 66.0 °F 45.0 °F 47% 29.80 in - SW 9.2 mph 17.3 mph N/A   Clear
11:53 AM 66.0 °F 43.0 °F 43% 29.80 in - SSW 13.8 mph - N/A   Mostly Cloudy
12:53 PM 66.9 °F 43.0 °F 42% 29.80 in - SSW 6.9 mph - N/A   Mostly Cloudy
1:53 PM 66.0 °F 42.1 °F 42% 29.80 in - SW 9.2 mph - N/A   Partly Cloudy
2:53 PM 66.0 °F 42.1 °F 42% 29.79 in - South 6.9 mph - N/A   Mostly Cloudy
3:53 PM 64.9 °F 42.1 °F 43% 29.78 in - South 10.4 mph - N/A   Clear
4:53 PM 64.0 °F 43.0 °F 46% 29.78 in - SW 9.2 mph - N/A   Clear
6:53 PM 60.1 °F 45.0 °F 57% 29.77 in - South 3.5 mph - 0.00 in   Mostly Cloudy
7:53 PM 59.0 °F 45.0 °F 60% 29.78 in - South 5.8 mph - N/A   Scattered Clouds
8:53 PM 59.0 °F 46.0 °F 62% 29.75 in - Calm Calm - N/A   Overcast
9:53 PM 54.0 °F 44.1 °F 69% 29.77 in - WSW 3.5 mph - N/A   Clear
10:53 PM 54.0 °F 45.0 °F 72% 29.75 in - Calm Calm - N/A   Clear
11:53 PM 53.1 °F 45.0 °F 74% 29.75 in - Calm Calm - N/A   Mostly Cloudy